Location: Vienna
(48.2082°N, 16.3738°E)
Time: 19:56:10
(UTC+01:00)

ISS - Pass Details

Date: 29 November 2019
Orbit: 411 x 421 km, 51.6° (Epoch: 10 December)

Event Time Altitude Azimuth Distance (km) Brightness Sun altitude
Rises 17:36:48 0° 263° (W) 2,353 1.9 -14.9°
Reaches altitude 10° 17:38:55 10° 268° (W) 1,493 0.3 -15.2°
Maximum altitude 17:42:13 55° 347° (NNW) 511 -3.4 -15.8°
Enters shadow 17:43:19 35° 46° (NE) 692 -3.1 -15.9°
